#Datum;Uhrzeit;WR;Pac;DaySum;Status;WR;Pac;DaySum;Status;Pdc1;Udc;Temp;WR;Pac;DaySum;Status;Pdc1;Udc;Temp;WR;Pac;DaySum;Status;Pdc1;Udc;Temp;WR;Pac;DaySum;Status;Pdc1;Pdc2;Udc1;Udc2;Temp;WR;Pac;DaySum;Status;Pdc1;Pdc2;Udc1;Udc2;Temp;WR;Pac;DaySum;Status;Pdc1;Udc;Temp;WR;Pac;DaySum;Status;Pdc1;Udc;Temp;WR;Pac;DaySum;Status;Pdc1;Udc;Temp
26.12.18;23:55:00;1;773;10455;0;2;0;10287;0;0;0;0;3;0;6953;0;0;0;0;4;0;8238;0;0;0;0;5;0;26814;0;0;0;0;0;0;6;0;20724;0;0;0;0;0;0;7;0;18437;0;0;0;0;8;0;17924;0;0;0;0;9;0;9540;0;0;0;0
26.12.18;23:50:00;1;434;10399;0;2;0;10287;0;0;0;0;3;0;6953;0;0;0;0;4;0;8238;0;0;0;0;5;0;26814;0;0;0;0;0;0;6;0;20724;0;0;0;0;0;0;7;0;18437;0;0;0;0;8;0;17924;0;0;0;0;9;0;9540;0;0;0;0
26.12.18;23:45:00;1;352;10363;0;2;0;10287;0;0;0;0;3;0;6953;0;0;0;0;4;0;8238;0;0;0;0;5;0;26814;0;0;0;0;0;0;6;0;20724;0;0;0;0;0;0;7;0;18437;0;0;0;0;8;0;17924;0;0;0;0;9;0;9540;0;0;0;0
26.12.18;23:40:00;1;349;10334;0;2;0;10287;0;0;0;0;3;0;6953;0;0;0;0;4;0;8238;0;0;0;0;5;0;26814;0;0;0;0;0;0;6;0;20724;0;0;0;0;0;0;7;0;18437;0;0;0;0;8;0;17924;0;0;0;0;9;0;9540;0;0;0;0
26.12.18;23:35:00;1;349;10305;0;2;0;10287;0;0;0;0;3;0;6953;0;0;0;0;4;0;8238;0;0;0;0;5;0;26814;0;0;0;0;0;0;6;0;20724;0;0;0;0;0;0;7;0;18437;0;0;0;0;8;0;17924;0;0;0;0;9;0;9540;0;0;0;0
26.12.18;23:30:00;1;351;10276;0;2;0;10287;0;0;0;0;3;0;6953;0;0;0;0;4;0;8238;0;0;0;0;5;0;26814;0;0;0;0;0;0;6;0;20724;0;0;0;0;0;0;7;0;18437;0;0;0;0;8;0;17924;0;0;0;0;9;0;9540;0;0;0;0
26.12.18;23:25:00;1;352;10246;0;2;0;10287;0;0;0;0;3;0;6953;0;0;0;0;4;0;8238;0;0;0;0;5;0;26814;0;0;0;0;0;0;6;0;20724;0;0;0;0;0;0;7;0;18437;0;0;0;0;8;0;17924;0;0;0;0;9;0;9540;0;0;0;0
26.12.18;23:20:00;1;593;10209;0;2;0;10287;0;0;0;0;3;0;6953;0;0;0;0;4;0;8238;0;0;0;0;5;0;26814;0;0;0;0;0;0;6;0;20724;0;0;0;0;0;0;7;0;18437;0;0;0;0;8;0;17924;0;0;0;0;9;0;9540;0;0;0;0
26.12.18;23:15:00;1;359;10160;0;2;0;10287;0;0;0;0;3;0;6953;0;0;0;0;4;0;8238;0;0;0;0;5;0;26814;0;0;0;0;0;0;6;0;20724;0;0;0;0;0;0;7;0;18437;0;0;0;0;8;0;17924;0;0;0;0;9;0;9540;0;0;0;0
26.12.18;23:10:00;1;402;10130;0;2;0;10287;0;0;0;0;3;0;6953;0;0;0;0;4;0;8238;0;0;0;0;5;0;26814;0;0;0;0;0;0;6;0;20724;0;0;0;0;0;0;7;0;18437;0;0;0;0;8;0;17924;0;0;0;0;9;0;9540;0;0;0;0
26.12.18;23:05:00;1;562;10094;0;2;0;10287;0;0;0;0;3;0;6953;0;0;0;0;4;0;8238;0;0;0;0;5;0;26814;0;0;0;0;0;0;6;0;20724;0;0;0;0;0;0;7;0;18437;0;0;0;0;8;0;17924;0;0;0;0;9;0;9540;0;0;0;0
26.12.18;23:00:00;1;567;10047;0;2;0;10287;0;0;0;0;3;0;6953;0;0;0;0;4;0;8238;0;0;0;0;5;0;26814;0;0;0;0;0;0;6;0;20724;0;0;0;0;0;0;7;0;18437;0;0;0;0;8;0;17924;0;0;0;0;9;0;9540;0;0;0;0
26.12.18;22:55:00;1;568;10000;0;2;0;10287;0;0;0;0;3;0;6953;0;0;0;0;4;0;8238;0;0;0;0;5;0;26814;2;0;0;0;0;0;6;0;20724;2;0;0;0;0;0;7;0;18437;0;0;0;0;8;0;17924;0;0;0;0;9;0;9540;0;0;0;0
26.12.18;22:50:00;1;556;9952;0;2;0;10287;0;0;0;0;3;0;6953;0;0;0;0;4;0;8238;0;0;0;0;5;0;26814;2;0;0;0;0;0;6;0;20724;2;0;0;0;0;0;7;0;18437;0;0;0;0;8;0;17924;0;0;0;0;9;0;9540;0;0;0;0
26.12.18;22:45:00;1;705;9907;0;2;0;10287;0;0;0;0;3;0;6953;0;0;0;0;4;0;8238;0;0;0;0;5;0;26814;2;0;0;0;0;0;6;0;20724;2;0;0;0;0;0;7;0;18437;0;0;0;0;8;0;17924;0;0;0;0;9;0;9540;0;0;0;0
26.12.18;22:40:00;1;525;9838;0;2;0;10287;0;0;0;0;3;0;6953;0;0;0;0;4;0;8238;0;0;0;0;5;0;26814;2;0;0;0;0;0;6;0;20724;2;0;0;0;0;0;7;0;18437;0;0;0;0;8;0;17924;0;0;0;0;9;0;9540;0;0;0;0
26.12.18;22:35:00;1;529;9794;0;2;0;10287;0;0;0;0;3;0;6953;0;0;0;0;4;0;8238;0;0;0;0;5;0;26814;2;0;0;0;0;0;6;0;20724;2;0;0;0;0;0;7;0;18437;0;0;0;0;8;0;17924;0;0;0;0;9;0;9540;0;0;0;0
26.12.18;22:30:00;1;526;9750;0;2;0;10287;0;0;0;0;3;0;6953;0;0;0;0;4;0;8238;0;0;0;0;5;0;26814;2;0;0;0;0;0;6;0;20724;2;0;0;0;0;0;7;0;18437;0;0;0;0;8;0;17924;0;0;0;0;9;0;9540;0;0;0;0
26.12.18;22:25:00;1;523;9707;0;2;0;10287;0;0;0;0;3;0;6953;0;0;0;0;4;0;8238;0;0;0;0;5;0;26814;2;0;0;0;0;0;6;0;20724;2;0;0;0;0;0;7;0;18437;0;0;0;0;8;0;17924;0;0;0;0;9;0;9540;0;0;0;0
26.12.18;22:20:00;1;522;9663;0;2;0;10287;0;0;0;0;3;0;6953;0;0;0;0;4;0;8238;0;0;0;0;5;0;26814;2;0;0;0;0;0;6;0;20724;2;0;0;0;0;0;7;0;18437;0;0;0;0;8;0;17924;0;0;0;0;9;0;9540;0;0;0;0
26.12.18;22:15:00;1;730;9619;0;2;0;10287;0;0;0;0;3;0;6953;0;0;0;0;4;0;8238;0;0;0;0;5;0;26814;2;0;0;0;0;0;6;0;20724;2;0;0;0;0;0;7;0;18437;0;0;0;0;8;0;17924;0;0;0;0;9;0;9540;0;0;0;0
26.12.18;22:10:00;1;549;9550;0;2;0;10287;0;0;0;0;3;0;6953;0;0;0;0;4;0;8238;0;0;0;0;5;0;26814;2;0;0;0;0;0;6;0;20724;2;0;0;0;0;0;7;0;18437;0;0;0;0;8;0;17924;0;0;0;0;9;0;9540;0;0;0;0
26.12.18;22:05:00;1;564;9504;0;2;0;10287;0;0;0;0;3;0;6953;0;0;0;0;4;0;8238;0;0;0;0;5;0;26814;2;0;0;0;0;0;6;0;20724;2;0;0;0;0;0;7;0;18437;0;0;0;0;8;0;17924;0;0;0;0;9;0;9540;0;0;0;0
26.12.18;22:00:00;1;569;9457;0;2;0;10287;0;0;0;0;3;0;6953;0;0;0;0;4;0;8238;0;0;0;0;5;0;26814;2;0;0;0;0;0;6;0;20724;2;0;0;0;0;0;7;0;18437;0;0;0;0;8;0;17924;0;0;0;0;9;0;9540;0;0;0;0
26.12.18;21:55:00;1;540;9410;0;2;0;10287;0;0;0;0;3;0;6953;0;0;0;0;4;0;8238;0;0;0;0;5;0;26814;2;0;0;0;0;0;6;0;20724;2;0;0;0;0;0;7;0;18437;0;0;0;0;8;0;17924;0;0;0;0;9;0;9540;0;0;0;0
26.12.18;21:50:00;1;522;9364;0;2;0;10287;0;0;0;0;3;0;6953;0;0;0;0;4;0;8238;0;0;0;0;5;0;26814;2;0;0;0;0;0;6;0;20724;2;0;0;0;0;0;7;0;18437;0;0;0;0;8;0;17924;0;0;0;0;9;0;9540;0;0;0;0
26.12.18;21:45:00;1;535;9320;0;2;0;10287;0;0;0;0;3;0;6953;0;0;0;0;4;0;8238;0;0;0;0;5;0;26814;2;0;0;0;0;0;6;0;20724;2;0;0;0;0;0;7;0;18437;0;0;0;0;8;0;17924;0;0;0;0;9;0;9540;0;0;0;0
26.12.18;21:40:00;1;980;9275;0;2;0;10287;0;0;0;0;3;0;6953;0;0;0;0;4;0;8238;0;0;0;0;5;0;26814;2;0;0;0;0;0;6;0;20724;2;0;0;0;0;0;7;0;18437;0;0;0;0;8;0;17924;0;0;0;0;9;0;9540;0;0;0;0
26.12.18;21:35:00;1;585;9206;0;2;0;10287;0;0;0;0;3;0;6953;0;0;0;0;4;0;8238;0;0;0;0;5;0;26814;2;0;0;0;0;0;6;0;20724;2;0;0;0;0;0;7;0;18437;0;0;0;0;8;0;17924;0;0;0;0;9;0;9540;0;0;0;0
26.12.18;21:30:00;1;593;9156;0;2;0;10287;0;0;0;0;3;0;6953;0;0;0;0;4;0;8238;0;0;0;0;5;0;26814;2;0;0;0;0;0;6;0;20724;2;0;0;0;0;0;7;0;18437;0;0;0;0;8;0;17924;0;0;0;0;9;0;9540;0;0;0;0
26.12.18;21:25:00;1;591;9107;0;2;0;10287;0;0;0;0;3;0;6953;0;0;0;0;4;0;8238;0;0;0;0;5;0;26814;2;0;0;0;0;0;6;0;20724;2;0;0;0;0;0;7;0;18437;0;0;0;0;8;0;17924;0;0;0;0;9;0;9540;0;0;0;0
26.12.18;21:20:00;1;597;9057;0;2;0;10287;0;0;0;0;3;0;6953;0;0;0;0;4;0;8238;0;0;0;0;5;0;26814;2;0;0;0;0;0;6;0;20724;2;0;0;0;0;0;7;0;18437;0;0;0;0;8;0;17924;0;0;0;0;9;0;9540;0;0;0;0
26.12.18;21:15:00;1;595;9007;0;2;0;10287;0;0;0;0;3;0;6953;0;0;0;0;4;0;8238;0;0;0;0;5;0;26814;2;0;0;0;0;0;6;0;20724;2;0;0;0;0;0;7;0;18437;0;0;0;0;8;0;17924;0;0;0;0;9;0;9540;0;0;0;0
26.12.18;21:10:00;1;638;8957;0;2;0;10287;0;0;0;0;3;0;6953;0;0;0;0;4;0;8238;0;0;0;0;5;0;26814;2;0;0;0;0;0;6;0;20724;2;0;0;0;0;0;7;0;18437;0;0;0;0;8;0;17924;0;0;0;0;9;0;9540;0;0;0;0
26.12.18;21:05:00;1;1052;8904;0;2;0;10287;0;0;0;0;3;0;6953;0;0;0;0;4;0;8238;0;0;0;0;5;0;26814;2;0;0;0;0;0;6;0;20724;2;0;0;0;0;0;7;0;18437;0;0;0;0;8;0;17924;0;0;0;0;9;0;9540;0;0;0;0
26.12.18;21:00:00;1;571;8826;0;2;0;10287;0;0;0;0;3;0;6953;0;0;0;0;4;0;8238;0;0;0;0;5;0;26814;2;0;0;0;0;0;6;0;20724;2;0;0;0;0;0;7;0;18437;0;0;0;0;8;0;17924;0;0;0;0;9;0;9540;0;0;0;0
26.12.18;20:55:00;1;408;8778;0;2;0;10287;0;0;0;0;3;0;6953;0;0;0;0;4;0;8238;0;0;0;0;5;0;26814;2;0;0;0;0;0;6;0;20724;2;0;0;0;0;0;7;0;18437;0;0;0;0;8;0;17924;0;0;0;0;9;0;9540;0;0;0;0
26.12.18;20:50:00;1;285;8745;0;2;0;10287;0;0;0;0;3;0;6953;0;0;0;0;4;0;8238;0;0;0;0;5;0;26814;2;0;0;0;0;0;6;0;20724;2;0;0;0;0;0;7;0;18437;0;0;0;0;8;0;17924;0;0;0;0;9;0;9540;0;0;0;0
26.12.18;20:45:00;1;281;8722;0;2;0;10287;0;0;0;0;3;0;6953;0;0;0;0;4;0;8238;0;0;0;0;5;0;26814;2;0;0;0;0;0;6;0;20724;2;0;0;0;0;0;7;0;18437;0;0;0;0;8;0;17924;0;0;0;0;9;0;9540;0;0;0;0
26.12.18;20:40:00;1;280;8698;0;2;0;10287;0;0;0;0;3;0;6953;0;0;0;0;4;0;8238;0;0;0;0;5;0;26814;2;0;0;0;0;0;6;0;20724;2;0;0;0;0;0;7;0;18437;0;0;0;0;8;0;17924;0;0;0;0;9;0;9540;0;0;0;0
26.12.18;20:35:00;1;278;8675;0;2;0;10287;0;0;0;0;3;0;6953;0;0;0;0;4;0;8238;0;0;0;0;5;0;26814;2;0;0;0;0;0;6;0;20724;2;0;0;0;0;0;7;0;18437;0;0;0;0;8;0;17924;0;0;0;0;9;0;9540;0;0;0;0
26.12.18;20:30:00;1;278;8651;0;2;0;10287;0;0;0;0;3;0;6953;0;0;0;0;4;0;8238;0;0;0;0;5;0;26814;2;0;0;0;0;0;6;0;20724;2;0;0;0;0;0;7;0;18437;0;0;0;0;8;0;17924;0;0;0;0;9;0;9540;0;0;0;0
26.12.18;20:25:00;1;634;8612;0;2;0;10287;0;0;0;0;3;0;6953;0;0;0;0;4;0;8238;0;0;0;0;5;0;26814;2;0;0;0;0;0;6;0;20724;2;0;0;0;0;0;7;0;18437;0;0;0;0;8;0;17924;0;0;0;0;9;0;9540;0;0;0;0
26.12.18;20:20:00;1;278;8579;0;2;0;10287;0;0;0;0;3;0;6953;0;0;0;0;4;0;8238;0;0;0;0;5;0;26814;2;0;0;0;0;0;6;0;20724;2;0;0;0;0;0;7;0;18437;0;0;0;0;8;0;17924;0;0;0;0;9;0;9540;0;0;0;0
26.12.18;20:15:00;1;322;8555;0;2;0;10287;0;0;0;0;3;0;6953;0;0;0;0;4;0;8238;0;0;0;0;5;0;26814;2;0;0;0;0;0;6;0;20724;2;0;0;0;0;0;7;0;18437;0;0;0;0;8;0;17924;0;0;0;0;9;0;9540;0;0;0;0
26.12.18;20:10:00;1;323;8528;0;2;0;10287;0;0;0;0;3;0;6953;0;0;0;0;4;0;8238;0;0;0;0;5;0;26814;2;0;0;0;0;0;6;0;20724;2;0;0;0;0;0;7;0;18437;0;0;0;0;8;0;17924;0;0;0;0;9;0;9540;0;0;0;0
26.12.18;20:05:00;1;326;8501;0;2;0;10287;0;0;0;0;3;0;6953;0;0;0;0;4;0;8238;0;0;0;0;5;0;26814;2;0;0;0;0;0;6;0;20724;2;0;0;0;0;0;7;0;18437;0;0;0;0;8;0;17924;0;0;0;0;9;0;9540;0;0;0;0
26.12.18;20:00:00;1;318;8474;0;2;0;10287;0;0;0;0;3;0;6953;0;0;0;0;4;0;8238;0;0;0;0;5;0;26814;2;0;0;0;0;0;6;0;20724;2;0;0;0;0;0;7;0;18437;0;0;0;0;8;0;17924;0;0;0;0;9;0;9540;0;0;0;0
26.12.18;19:55:00;1;281;8450;0;2;0;10287;0;0;0;0;3;0;6953;0;0;0;0;4;0;8238;0;0;0;0;5;0;26814;2;0;0;0;0;0;6;0;20724;2;0;0;0;0;0;7;0;18437;0;0;0;0;8;0;17924;0;0;0;0;9;0;9540;0;0;0;0
26.12.18;19:50:00;1;789;8426;0;2;0;10287;0;0;0;0;3;0;6953;0;0;0;0;4;0;8238;0;0;0;0;5;0;26814;2;0;0;0;0;0;6;0;20724;2;0;0;0;0;0;7;0;18437;0;0;0;0;8;0;17924;0;0;0;0;9;0;9540;0;0;0;0
26.12.18;19:45:00;1;287;8378;0;2;0;10287;0;0;0;0;3;0;6953;0;0;0;0;4;0;8238;0;0;0;0;5;0;26814;2;0;0;0;0;0;6;0;20724;2;0;0;0;0;0;7;0;18437;0;0;0;0;8;0;17924;0;0;0;0;9;0;9540;0;0;0;0
26.12.18;19:40:00;1;280;8354;0;2;0;10287;0;0;0;0;3;0;6953;0;0;0;0;4;0;8238;0;0;0;0;5;0;26814;2;0;0;0;0;0;6;0;20724;2;0;0;0;0;0;7;0;18437;0;0;0;0;8;0;17924;0;0;0;0;9;0;9540;0;0;0;0
26.12.18;19:35:00;1;281;8330;0;2;0;10287;0;0;0;0;3;0;6953;0;0;0;0;4;0;8238;0;0;0;0;5;0;26814;2;0;0;0;0;0;6;0;20724;2;0;0;0;0;0;7;0;18437;0;0;0;0;8;0;17924;0;0;0;0;9;0;9540;0;0;0;0
26.12.18;19:30:00;1;281;8307;0;2;0;10287;0;0;0;0;3;0;6953;0;0;0;0;4;0;8238;0;0;0;0;5;0;26814;2;0;0;0;0;0;6;0;20724;2;0;0;0;0;0;7;0;18437;0;0;0;0;8;0;17924;0;0;0;0;9;0;9540;0;0;0;0
26.12.18;19:25:00;1;281;8283;0;2;0;10287;0;0;0;0;3;0;6953;0;0;0;0;4;0;8238;0;0;0;0;5;0;26814;2;0;0;0;0;0;6;0;20724;2;0;0;0;0;0;7;0;18437;0;0;0;0;8;0;17924;0;0;0;0;9;0;9540;0;0;0;0
26.12.18;19:20:00;1;315;8260;0;2;0;10287;0;0;0;0;3;0;6953;0;0;0;0;4;0;8238;0;0;0;0;5;0;26814;2;0;0;0;0;0;6;0;20724;2;0;0;0;0;0;7;0;18437;0;0;0;0;8;0;17924;0;0;0;0;9;0;9540;0;0;0;0
26.12.18;19:15:00;1;544;8234;0;2;0;10287;0;0;0;0;3;0;6953;0;0;0;0;4;0;8238;0;0;0;0;5;0;26814;2;0;0;0;0;0;6;0;20724;2;0;0;0;0;0;7;0;18437;0;0;0;0;8;0;17924;0;0;0;0;9;0;9540;0;0;0;0
26.12.18;19:10:00;1;436;8178;0;2;0;10287;0;0;0;0;3;0;6953;0;0;0;0;4;0;8238;0;0;0;0;5;0;26814;2;0;0;0;0;0;6;0;20724;2;0;0;0;0;0;7;0;18437;0;0;0;0;8;0;17924;0;0;0;0;9;0;9540;0;0;0;0
26.12.18;19:05:00;1;350;8145;0;2;0;10287;0;0;0;0;3;0;6953;0;0;0;0;4;0;8238;0;0;0;0;5;0;26814;2;0;0;0;0;0;6;0;20724;2;0;0;0;0;0;7;0;18437;0;0;0;0;8;0;17924;0;0;0;0;9;0;9540;0;0;0;0
26.12.18;19:00:00;1;344;8115;0;2;0;10287;0;0;0;0;3;0;6953;0;0;0;0;4;0;8238;0;0;0;0;5;0;26814;2;0;0;0;0;0;6;0;20724;2;0;0;0;0;0;7;0;18437;0;0;0;0;8;0;17924;0;0;0;0;9;0;9540;0;0;0;0
26.12.18;18:55:00;1;344;8086;0;2;0;10287;0;0;0;0;3;0;6953;0;0;0;0;4;0;8238;0;0;0;0;5;0;26814;2;0;0;0;0;0;6;0;20724;2;0;0;0;0;0;7;0;18437;0;0;0;0;8;0;17924;0;0;0;0;9;0;9540;0;0;0;0
26.12.18;18:50:00;1;347;8057;0;2;0;10287;0;0;0;0;3;0;6953;0;0;0;0;4;0;8238;0;0;0;0;5;0;26814;2;0;0;0;0;0;6;0;20724;2;0;0;0;0;0;7;0;18437;0;0;0;0;8;0;17924;0;0;0;0;9;0;9540;0;0;0;0
26.12.18;18:45:00;1;343;8028;0;2;0;10287;0;0;0;0;3;0;6953;0;0;0;0;4;0;8238;0;0;0;0;5;0;26814;2;0;0;0;0;0;6;0;20724;2;0;0;0;0;0;7;0;18437;0;0;0;0;8;0;17924;0;0;0;0;9;0;9540;0;0;0;0
26.12.18;18:40:00;1;540;8000;0;2;0;10287;0;0;0;0;3;0;6953;0;0;0;0;4;0;8238;0;0;0;0;5;0;26814;2;0;0;0;0;0;6;0;20724;2;0;0;0;0;0;7;0;18437;0;0;0;0;8;0;17924;0;0;0;0;9;0;9540;0;0;0;0
26.12.18;18:35:00;1;279;7947;0;2;0;10287;0;0;0;0;3;0;6953;0;0;0;0;4;0;8238;0;0;0;0;5;0;26814;2;0;0;0;0;0;6;0;20724;2;0;0;0;0;0;7;0;18437;0;0;0;0;8;0;17924;0;0;0;0;9;0;9540;0;0;0;0
26.12.18;18:30:00;1;280;7924;0;2;0;10287;0;0;0;0;3;0;6953;0;0;0;0;4;0;8238;0;0;0;0;5;0;26814;2;0;0;0;0;0;6;0;20724;2;0;0;0;0;0;7;0;18437;0;0;0;0;8;0;17924;0;0;0;0;9;0;9540;0;0;0;0
26.12.18;18:25:00;1;309;7900;0;2;0;10287;0;0;0;0;3;0;6953;0;0;0;0;4;0;8238;0;0;0;0;5;0;26814;2;0;0;0;0;0;6;0;20724;2;0;0;0;0;0;7;0;18437;0;0;0;0;8;0;17924;0;0;0;0;9;0;9540;0;0;0;0
26.12.18;18:20:00;1;321;7875;0;2;0;10287;0;0;0;0;3;0;6953;0;0;0;0;4;0;8238;0;0;0;0;5;0;26814;2;0;0;0;0;0;6;0;20724;2;0;0;0;0;0;7;0;18437;0;0;0;0;8;0;17924;0;0;0;0;9;0;9540;0;0;0;0
26.12.18;18:15:00;1;323;7848;0;2;0;10287;0;0;0;0;3;0;6953;0;0;0;0;4;0;8238;0;0;0;0;5;0;26814;2;0;0;0;0;0;6;0;20724;2;0;0;0;0;0;7;0;18437;0;0;0;0;8;0;17924;0;0;0;0;9;0;9540;0;0;0;0
26.12.18;18:10:00;1;315;7821;0;2;0;10287;0;0;0;0;3;0;6953;0;0;0;0;4;0;8238;0;0;0;0;5;0;26814;2;0;0;0;0;0;6;0;20724;2;0;0;0;0;0;7;0;18437;0;0;0;0;8;0;17924;0;0;0;0;9;0;9540;0;0;0;0
26.12.18;18:05:00;1;487;7795;0;2;0;10287;0;0;0;0;3;0;6953;0;0;0;0;4;0;8238;0;0;0;0;5;0;26814;2;0;0;0;0;0;6;0;20724;2;0;0;0;0;0;7;0;18437;0;0;0;0;8;0;17924;0;0;0;0;9;0;9540;0;0;0;0
26.12.18;18:00:00;1;488;7748;0;2;0;10287;0;0;0;0;3;0;6953;0;0;0;0;4;0;8238;0;0;0;0;5;0;26814;2;0;0;0;0;0;6;0;20724;2;0;0;0;0;0;7;0;18437;0;0;0;0;8;0;17924;0;0;0;0;9;0;9540;0;0;0;0
26.12.18;17:55:00;1;283;7723;0;2;0;10287;0;0;0;0;3;0;6953;0;0;0;0;4;0;8238;0;0;0;0;5;0;26814;2;0;0;0;0;0;6;0;20724;2;0;0;0;0;0;7;0;18437;0;0;0;0;8;0;17924;0;0;0;0;9;0;9540;0;0;0;0
26.12.18;17:50:00;1;341;7699;0;2;0;10287;0;0;0;0;3;0;6953;0;0;0;0;4;0;8238;0;0;0;0;5;0;26814;2;0;0;0;0;0;6;0;20724;2;0;0;0;0;0;7;0;18437;0;0;0;0;8;0;17924;0;0;0;0;9;0;9540;0;0;0;0
26.12.18;17:45:00;1;735;7670;0;2;0;10287;0;0;0;0;3;0;6953;0;0;0;0;4;0;8238;0;0;0;0;5;0;26814;2;0;0;0;0;0;6;0;20724;2;0;0;0;0;0;7;0;18437;0;0;0;0;8;0;17924;0;0;0;0;9;0;9540;0;0;0;0
26.12.18;17:40:00;1;936;7598;0;2;0;10287;0;0;0;0;3;0;6953;0;0;0;0;4;0;8238;0;0;0;0;5;0;26814;2;0;0;0;0;0;6;0;20724;2;0;0;0;0;0;7;0;18437;0;0;0;0;8;0;17924;0;0;0;0;9;0;9540;0;0;0;0
26.12.18;17:35:00;1;534;7531;0;2;0;10287;0;0;0;0;3;0;6953;0;0;0;0;4;0;8238;0;0;0;0;5;0;26814;2;0;0;0;0;0;6;0;20724;2;0;0;0;0;0;7;0;18437;0;0;0;0;8;0;17924;0;0;0;0;9;0;9540;0;0;0;0
26.12.18;17:30:00;1;862;7487;0;2;0;10287;0;0;0;0;3;0;6953;0;0;0;0;4;0;8238;0;0;0;0;5;0;26814;2;0;0;0;0;0;6;0;20724;2;0;0;0;0;0;7;0;18437;0;0;0;0;8;0;17924;0;0;0;0;9;0;9540;0;0;0;0
26.12.18;17:25:00;1;543;7417;0;2;0;10287;0;0;0;0;3;0;6953;0;0;0;0;4;0;8238;0;0;0;0;5;0;26814;2;0;0;0;0;0;6;0;20724;2;0;0;0;0;0;7;0;18437;0;0;0;0;8;0;17924;0;0;0;0;9;0;9540;0;0;0;0
26.12.18;17:20:00;1;528;7372;0;2;0;10287;0;0;0;0;3;0;6953;0;0;0;0;4;0;8238;0;0;0;0;5;0;26814;2;0;0;0;0;0;6;0;20724;2;0;0;0;0;0;7;0;18437;0;0;0;0;8;0;17924;0;0;0;0;9;0;9540;0;0;0;0
26.12.18;17:15:00;1;543;7327;0;2;0;10287;0;0;0;0;3;0;6953;0;0;0;0;4;0;8238;0;0;0;0;5;0;26814;2;0;0;0;0;0;6;0;20724;2;0;0;0;0;0;7;0;18437;0;0;0;0;8;0;17924;0;0;0;0;9;0;9540;0;0;0;0
26.12.18;17:10:00;1;511;7283;0;2;0;10287;0;0;0;0;3;0;6953;0;0;0;0;4;0;8238;0;0;0;0;5;0;26814;2;0;0;0;0;0;6;0;20724;2;0;0;0;0;0;7;0;18437;0;0;0;0;8;0;17924;0;0;0;0;9;0;9540;0;0;0;0
26.12.18;17:05:00;1;584;7238;0;2;0;10287;0;0;0;0;3;0;6953;0;0;0;0;4;0;8238;0;0;0;0;5;0;26814;2;0;0;0;0;0;6;0;20724;2;0;0;0;0;0;7;0;18437;0;0;0;0;8;0;17924;0;0;0;0;9;0;9540;0;0;0;0
26.12.18;17:00:00;1;482;7191;0;2;0;10287;0;0;0;0;3;0;6953;0;0;0;0;4;0;8238;0;0;0;0;5;0;26814;2;0;0;0;0;0;6;0;20724;2;0;0;0;0;0;7;0;18437;0;0;0;0;8;0;17924;0;0;0;0;9;0;9540;0;0;0;0
26.12.18;16:55:00;1;526;7151;0;2;0;10287;0;0;0;0;3;0;6953;0;0;0;0;4;0;8238;0;0;0;0;5;0;26814;2;0;0;0;0;0;6;0;20724;2;0;0;0;0;0;7;0;18437;0;0;0;0;8;0;17924;0;0;0;0;9;0;9540;0;0;0;0
26.12.18;16:50:00;1;1042;7105;0;2;0;10287;0;0;0;0;3;0;6953;0;0;0;0;4;0;8238;0;0;0;0;5;0;26814;2;0;0;0;0;0;6;0;20724;2;0;0;0;0;0;7;0;18437;0;0;0;0;8;0;17924;0;0;0;0;9;0;9540;0;0;0;0
26.12.18;16:45:00;1;536;7036;0;2;0;10287;0;0;196;7;3;0;6953;6;0;292;14;4;0;8238;0;0;0;0;5;0;26814;2;0;0;0;0;0;6;0;20724;2;0;0;0;0;0;7;0;18437;0;0;0;0;8;0;17924;0;0;0;0;9;0;9540;0;0;0;0
26.12.18;16:40:00;1;529;6990;0;2;0;10287;6;0;316;11;3;0;6953;6;0;374;14;4;0;8238;2;0;76;9;5;0;26814;2;0;0;0;0;0;6;0;20724;0;0;0;0;0;0;7;0;18437;0;0;0;0;8;0;17924;0;0;0;0;9;0;9540;0;0;0;0
26.12.18;16:35:00;1;487;6947;0;2;0;10287;6;0;354;11;3;0;6953;4;1;412;14;4;0;8238;1;0;114;9;5;0;26814;26;0;1;311;309;21;6;0;20724;1;5;3;149;324;17;7;0;18437;0;0;131;7;8;0;17924;0;0;131;7;9;0;9540;0;0;180;6
26.12.18;16:30:00;1;533;6905;0;2;0;10287;6;0;380;11;3;0;6953;3;4;430;14;4;0;8238;1;0;153;9;5;0;26814;23;0;0;401;404;22;6;0;20724;23;6;4;181;528;20;7;0;18437;6;0;315;15;8;0;17924;6;0;318;15;9;0;9540;6;0;325;10
26.12.18;16:25:00;1;532;6861;0;2;0;10287;6;0;398;12;3;0;6953;6;3;482;15;4;0;8238;1;0;189;10;5;6;26814;1;0;1;414;642;22;6;0;20724;23;5;4;181;565;21;7;0;18437;6;0;378;16;8;0;17924;6;0;383;15;9;0;9540;6;0;387;11
26.12.18;16:20:00;1;544;6817;0;2;2;10287;6;7;401;12;3;1;6953;6;5;481;15;4;0;8238;1;0;221;10;5;13;26813;26;1;5;425;667;23;6;0;20724;23;4;4;432;588;22;7;0;18437;6;0;438;16;8;0;17924;6;1;424;15;9;1;9540;6;1;424;11
26.12.18;16:15:00;1;678;6775;0;2;7;10287;6;17;404;12;3;0;6953;6;5;523;15;4;0;8238;3;0;223;11;5;83;26811;4;15;18;379;598;24;6;45;20724;1;16;27;506;483;23;7;4;18437;4;5;446;16;8;3;17924;6;5;446;16;9;1;9540;6;1;506;11
26.12.18;16:10:00;1;465;6715;0;2;6;10286;6;12;420;13;3;2;6953;6;8;527;15;4;0;8238;3;0;209;11;5;103;26804;4;28;27;379;598;24;6;64;20720;4;29;41;485;461;23;7;1;18436;6;7;476;17;8;0;17924;6;0;501;16;9;2;9540;6;4;518;12
26.12.18;16:05:00;1;517;6675;0;2;28;10286;6;48;382;13;3;0;6953;6;0;560;16;4;3;8238;3;3;199;11;5;114;26796;4;39;35;379;598;24;6;79;20714;4;41;56;485;461;23;7;8;18436;6;14;462;17;8;4;17924;3;13;466;17;9;0;9540;6;0;534;12
26.12.18;16:00:00;1;581;6632;0;2;56;10284;4;87;379;14;3;10;6953;3;23;507;16;4;11;8238;3;11;199;11;5;144;26786;4;51;49;379;598;24;6;99;20707;4;50;69;485;461;23;7;23;18435;6;41;418;18;8;8;17923;6;11;486;17;9;3;9540;3;12;508;12
26.12.18;15:55:00;1;632;6583;0;2;103;10279;4;136;371;14;3;18;6952;6;31;542;16;4;37;8237;3;38;198;11;5;198;26773;4;89;75;379;598;24;6;140;20699;4;67;78;485;461;23;7;58;18434;4;93;411;18;8;46;17922;4;83;442;17;9;4;9539;6;8;557;12
26.12.18;15:50:00;1;616;6532;0;2;233;10270;4;273;402;15;3;98;6950;4;135;463;17;4;84;8233;3;88;205;12;5;266;26756;4;123;105;379;598;24;6;197;20687;4;83;103;485;461;23;7;162;18429;4;195;474;18;8;97;17919;4;131;439;18;9;17;9539;6;27;528;13
26.12.18;15:45:00;1;638;6479;0;2;550;10251;4;597;400;15;3;251;6942;4;294;446;17;4;111;8226;3;115;228;12;5;321;26734;4;150;125;379;598;24;6;272;20670;4;115;154;485;505;23;7;392;18416;4;430;454;18;8;174;17911;4;209;416;18;9;8;9538;6;12;576;13
26.12.18;15:40:00;1;638;6426;0;2;297;10206;4;337;371;15;3;155;6922;4;197;474;17;4;101;8217;5;105;210;12;5;360;26706;4;177;136;394;598;25;6;273;20647;4;129;175;485;483;23;7;293;18384;4;336;478;18;8;176;17896;4;221;479;18;9;10;9537;6;15;571;13
26.12.18;15:35:00;1;1326;6373;0;2;512;10180;4;559;391;16;3;272;6908;4;314;453;18;4;165;8209;5;171;242;12;5;559;26676;4;255;233;429;663;25;6;383;20623;4;197;219;499;515;23;7;643;18358;4;692;444;19;8;416;17882;4;456;448;18;9;10;9537;6;15;590;14
26.12.18;15:30:00;1;903;6284;0;2;316;10138;4;359;400;16;3;149;6886;4;189;510;18;4;125;8195;5;131;234;12;5;466;26631;4;223;195;375;614;25;6;315;20591;4;152;170;491;485;24;7;500;18307;4;542;417;19;8;348;17848;4;394;450;18;9;69;9536;4;100;506;14
26.12.18;15:25:00;1;887;6208;0;2;283;10113;4;324;390;16;3;127;6874;4;170;515;18;4;119;8185;5;124;224;13;5;451;26590;4;210;188;396;618;25;6;280;20563;4;137;149;482;464;24;7;433;18268;4;473;396;19;8;386;17821;4;428;456;19;9;69;9530;4;98;462;15
26.12.18;15:20:00;1;840;6135;0;2;160;10090;4;197;387;17;3;92;6863;4;131;488;18;4;83;8175;3;86;199;13;5;307;26554;4;142;114;379;598;25;6;216;20539;4;98;116;484;461;24;7;155;18232;4;191;407;20;8;143;17789;4;170;386;19;9;64;9524;4;91;446;15
26.12.18;15:15:00;1;870;6064;0;2;180;10076;4;222;390;17;3;103;6856;4;145;499;19;4;108;8168;5;112;226;13;5;341;26529;4;163;138;384;598;25;6;250;20521;4;128;143;501;477;24;7;185;18219;4;224;434;20;8;172;17777;4;207;418;20;9;78;9519;4;105;449;15
26.12.18;15:10:00;1;631;5994;0;2;674;10061;4;729;399;18;3;356;6847;4;407;521;19;4;235;8159;5;245;245;13;5;1104;26499;4;545;465;426;677;26;6;745;20499;4;369;395;568;565;24;7;1206;18204;4;1282;489;20;8;1122;17763;4;1183;465;20;9;253;9512;4;285;406;16
26.12.18;15:05:00;1;629;5942;0;2;727;10007;4;787;416;19;3;415;6819;4;472;533;19;4;242;8140;5;252;232;13;5;1147;26414;4;592;491;417;674;26;6;839;20438;4;410;420;597;576;24;7;1309;18112;4;1385;495;21;8;1214;17675;4;1288;489;20;9;371;9492;4;409;413;17
26.12.18;15:00:00;1;581;5889;0;2;803;9947;4;864;413;19;3;499;6785;4;557;529;20;4;279;8120;5;291;244;14;5;1272;26312;4;671;541;435;673;26;6;949;20364;4;470;466;592;570;24;7;1842;18002;4;1930;485;21;8;1930;17573;4;2022;507;20;9;679;9461;4;735;501;17
26.12.18;14:55:00;1;760;5841;0;2;343;9876;4;388;405;20;3;219;6742;4;265;524;20;4;222;8096;5;231;236;14;5;648;26218;4;324;266;405;621;26;6;517;20292;4;245;260;597;575;24;7;975;17847;4;1042;495;21;8;1122;17411;4;1181;483;21;9;289;9404;4;324;411;14
26.12.18;14:50:00;1;497;5773;0;2;1792;9848;4;1893;414;21;3;988;6723;4;1067;550;21;4;481;8078;5;501;236;14;5;2641;26156;4;1398;1147;449;723;26;6;1746;20246;4;885;890;624;594;24;7;2059;17735;0;2145;403;16;8;2325;17321;4;2442;499;21;9;1151;9378;4;1225;499;19
26.12.18;14:45:00;1;496;5732;0;2;1258;9700;4;1338;435;21;3;831;6645;4;899;523;21;4;425;8038;5;443;246;14;5;2235;25927;4;1191;950;440;713;27;6;1602;20075;4;828;774;624;612;24;7;2439;17581;4;2571;501;21;8;2370;17139;4;2484;495;21;9;1201;9290;4;1278;495;18
26.12.18;14:40:00;1;1502;5690;0;2;1234;9586;4;1308;403;21;3;717;6569;4;783;516;21;4;402;8001;5;419;236;15;5;1934;25735;4;1035;816;430;680;27;6;1467;19934;4;772;751;599;574;25;7;2273;17364;4;2387;495;21;8;2514;16929;4;2636;490;21;9;1244;9184;4;1324;499;18
26.12.18;14:35:00;1;1691;5566;0;2;770;9480;4;830;400;21;3;329;6504;4;382;537;21;4;282;7967;5;294;233;15;5;846;25585;4;417;343;420;661;27;6;1078;19816;4;569;575;570;554;25;7;1424;17175;4;1504;492;21;8;922;16725;4;986;477;21;9;318;9083;4;359;526;18
26.12.18;14:30:00;1;1866;5421;0;2;2403;9417;4;2533;428;22;3;1452;6477;4;1550;547;22;4;627;7943;5;653;223;15;5;3644;25430;4;1966;1602;443;715;27;6;2672;19704;4;1356;1347;624;597;25;7;2486;17061;4;2609;493;21;8;1930;16650;4;2037;482;21;9;987;9057;4;1058;538;19
26.12.18;14:25:00;1;935;5250;0;2;2334;9214;4;2462;428;21;3;1491;6353;4;1591;551;21;4;689;7890;5;718;226;15;5;3820;25130;4;2040;1691;451;732;27;6;2861;19473;4;1459;1423;623;591;25;7;3370;16827;4;3543;488;21;8;2957;16455;4;3101;487;21;9;1538;8957;4;1637;549;18
26.12.18;14:20:00;1;559;5179;0;2;582;9018;4;636;416;20;3;422;6227;4;478;532;21;4;365;7832;5;380;241;15;5;1251;24797;4;620;555;413;697;27;6;1409;19220;4;718;761;579;584;25;7;1137;16542;4;1203;481;21;8;980;16204;4;1045;476;21;9;276;8826;4;322;532;18
26.12.18;14:15:00;1;787;5133;0;2;540;8964;4;591;407;20;3;546;6186;4;601;532;21;4;343;7799;5;358;237;16;5;1095;24698;4;539;475;419;681;27;6;1013;19134;4;490;513;594;582;25;7;867;16442;4;929;468;22;8;648;16109;4;701;478;21;9;152;8803;4;177;353;12
26.12.18;14:10:00;1;542;5062;0;2;390;8919;4;434;411;21;3;238;6141;4;283;523;21;4;269;7771;5;280;240;16;5;751;24613;4;365;317;417;685;28;6;622;19068;4;329;343;594;578;25;7;490;16371;4;540;461;22;8;475;16056;4;517;476;22;9;234;8785;4;273;527;18
26.12.18;14:05:00;1;542;4998;0;2;792;8887;4;854;411;22;3;496;6121;4;550;514;22;4;364;7748;5;379;237;17;5;1440;24550;4;752;624;424;668;28;6;1034;19018;4;527;558;586;580;26;7;646;16330;4;696;473;23;8;722;16016;4;774;481;23;9;455;8765;4;504;546;19
26.12.18;14:00:00;1;517;4952;0;2;594;8822;4;648;403;23;3;391;6081;4;445;511;22;4;356;7718;5;371;236;17;5;1191;24433;4;621;502;410;648;29;6;720;18928;4;362;384;588;570;26;7;534;16277;4;578;464;24;8;537;15956;4;594;470;23;9;292;8728;4;335;521;20